This demonstration page uses our WeatherBlox Daily Observations layout. Learn more.

Left ArrowRight Arrow

Hourly Observations for November 9, 2015

Temp ( °F °C ) Dew Point ( °F °C ) Humidity (%) Winds ( mph kmh ) Pressure ( in mb ) Visibility ( mi km ) Precip ( " mm )
12:53 am 00:53 Clear 49 9.4 40 4.4 71 71 E 5 7 30.06 1018 10 16 0.00 0.00
1:53 am 01:53 Clear 45 7.2 39 3.9 80 80 NNE 5 7 30.05 1018 10 16 0.00 0.00
2:53 am 02:53 Clear 43 6.1 38 3.3 82 82 N 5 7 30.04 1017 10 16 0.00 0.00
3:53 am 03:53 Clear 41 5 37 2.8 86 86 N 6 9 30.03 1017 10 16 0.00 0.00
4:53 am 04:53 Clear 40 4.4 36 2.2 86 86 N 5 7 30.02 1017 10 16 0.00 0.00
5:53 am 05:53 Clear 39 3.9 36 2.2 89 89 NNE 3 6 30.03 1017 10 16 0.00 0.00
6:53 am 06:53 Clear 40 4.4 36 2.2 86 86 Calm 30.04 1017 10 16 0.00 0.00
7:53 am 07:53 Sunny 41 5 38 3.3 89 89 Calm 30.06 1018 10 16 0.00 0.00
8:53 am 08:53 Sunny 49 9.4 41 5 74 74 ESE 3 6 30.06 1018 10 16 0.00 0.00
9:53 am 09:53 Sunny 55 12.8 42 5.6 62 62 SSE 3 6 30.06 1018 10 16 0.00 0.00
10:53 am 10:53 Sunny 61 16.1 44 6.7 54 54 S 5 7 30.05 1018 10 16 0.00 0.00
11:53 am 11:53 Sunny 66 18.9 46 7.8 49 49 VRB 5 7 30.01 1016 10 16 0.00 0.00
12:53 pm 12:53 Sunny 70 21.1 47 8.3 44 44 SSE 7 11 29.97 1015 10 16 0.00 0.00
1:53 pm 13:53 Sunny 73 22.8 48 8.9 41 41 S 8 13 29.93 1014 10 16 0.00 0.00
2:53 pm 14:53 Sunny 75 23.9 46 7.8 36 36 S 10 17 29.92 1013 10 16 0.00 0.00
3:53 pm 15:53 Sunny 77 25 44 6.7 31 31 S 9 15 29.90 1013 10 16 0.00 0.00
4:53 pm 16:53 Sunny 75 23.9 42 5.6 31 31 S 12 19 29.90 1013 10 16 0.00 0.00
5:53 pm 17:53 Sunny 69 20.6 45 7.2 42 42 S 6 9 29.91 1013 10 16 0.00 0.00
6:53 pm 18:53 Clear 63 17.2 45 7.2 52 52 SE 13 20 29.93 1014 10 16 0.00 0.00
7:53 pm 19:53 Clear 64 17.8 49 9.4 58 58 SE 10 17 29.95 1014 10 16 0.00 0.00
8:53 pm 20:53 Clear 62 16.7 51 10.6 67 67 SE 10 17 29.95 1014 10 16 0.00 0.00
9:53 pm 21:53 Clear 60 15.6 52 11.1 75 75 SE 12 19 29.95 1014 10 16 0.00 0.00
10:53 pm 22:53 Clear 58 14.4 53 11.7 84 84 SE 9 15 29.94 1014 10 16 0.00 0.00
11:53 pm 23:53 Clear 56 13.3 53 11.7 90 90 SE 10 17 29.93 1014 8 13 0.00 0.00

Powered by AerisWeather